Regional Weather Roundup
Issued by NWS

Home | Current Version | Previous Version | Graphics & Text | Print | Product List | Glossary On
Versions: 1 2 3 4 5 6 7 8 9 10 11 12 13 14 15 16 17 18 19 20 21 22 23 24 25 26 27 28 29 30 31 32 33 34 35 36 37 38 39 40 41 42 43 44 45 46 47 48 49 50
000
ASUS45 KBOU 040807
RWRCO

WEATHER ROUNDUP FOR COLORADO
NATIONAL WEATHER SERVICE DENVER/BOULDER CO
200 AM MDT TUE AUG 04 2015

NOTE: "FAIR" INDICATES FEW OR NO CLOUDS BELOW 12000 FEET WITH NO
SIGNIFICANT WEATHER AND/OR OBSTRUCTIONS TO VISIBILITY.

COZ001>005-013-030-031-040900-
...NORTHWEST COLORADO...

CITY           SKY/WX    TMP DP  RH WIND       PRES   REMARKS
CRAIG          PTCLDY    54  51  90 CALM      30.19F
HAYDEN         PTCLDY    55  46  71 SW3       30.21S
MEEKER         PTCLDY    51  47  86 CALM      30.21S
MOUNT WERNER   NOT AVBL
STEAMBOAT SPGS   N/A     53  52  97 CALM      30.23S
WALDEN         MOCLDY    50  45  81 SW10      30.27S
$$

COZ006>008-011-040900-
...WEST CENTRAL VALLEYS...

CITY           SKY/WX    TMP DP  RH WIND       PRES   REMARKS
GRAND JUNCTION MOCLDY    66  49  54 W5        30.11R
MONTROSE       CLOUDY    66  50  56 SE13      30.19F
EAGLE          CLEAR     54  46  76 SE3       30.24R
RIFLE          MOCLDY    59  54  83 SE6       30.15R
DELTA          RAIN      64  54  69 NE12      30.16S
NUCLA          CLOUDY    61  48  63 SE7       30.23F
$$

COZ017>023-064>068-040900-
...SOUTHWEST COLORADO...

CITY           SKY/WX    TMP DP  RH WIND       PRES   REMARKS
DURANGO        CLEAR     54  42  64 N7        30.23R
CORTEZ         PTCLDY    62  51  67 S6        30.23S
PAGOSA SPRINGS CLEAR     48  47  97 CALM      30.31F
TELLURIDE      PTCLDY    52  42  68 SE3       30.47R
WOLF CREEK PAS NOT AVBL
$$

COZ009-010-012-014-032>034-037-058>063-040900-
...CENTRAL COLORADO...

CITY           SKY/WX    TMP DP  RH WIND       PRES   REMARKS
ASPEN          MOCLDY    53  45  74 SE5       30.30R
BUENA VISTA    PTCLDY    48  44  85 CALM      30.32R
COPPER MTN     PTCLDY    48  30  49 W21G29    30.54F
BERTHOUD PASS  FAIR      41  30  65 W24G40    30.56F
COTTONWOOD PAS PTCLDY    55  39  54 W5        30.42S
GUNNISON       PTCLDY    52  46  82 SW13      30.39R THUNDER
KREMMLING      CLEAR     46  41  81 CALM      30.27R
LEADVILLE      PTCLDY    52  36  54 NW8       30.42R
MONARCH PASS   PTCLDY    43  39  87 W21       30.67R
SALIDA         MOCLDY    54  50  85 SW3       30.37R
SUNLIGHT       MOCLDY    46  43  87 CALM      30.49S THUNDER
WILKERSON PASS NOT AVBL
$$

COZ069>075-040900-
...SAN LUIS VALLEY/SANGRE DE CRISTO MOUNTAINS...

CITY           SKY/WX    TMP DP  RH WIND       PRES   REMARKS
ALAMOSA        CLEAR     49  47  93 CALM      30.29S
LA VETA PASS   CLEAR     46  41  81 MISG      30.47R
SAGUACHE       CLEAR     52  46  82 NW8       30.33R
$$

COZ035-036-038>040-040900-
...NORTHERN COLORADO FRONT RANGE...

CITY           SKY/WX    TMP DP  RH WIND       PRES   REMARKS
DENVER INTL AP PTCLDY    60  51  72 SW6       30.06F
DMNS CITY PARK   N/A     61  55  80 E7        30.06F
AURORA         PTCLDY    60  51  70 SW7       30.09F
FRONT RANGE AP NOT AVBL
ERIE MUNI ARPT PTCLDY    57  54  88 CALM      30.05F
BOULDER MUN AP PTCLDY    64  54  68 S5        30.06F
CENTENNIAL     PTCLDY    63  49  60 W8        30.10S
BROOMFIELD     PTCLDY    63  52  67 NW8       30.09F
FORT COLLINS   PTCLDY    63  54  72 E5        30.04F
LONGMONT       PTCLDY    62  55  77 CALM      30.06F
$$

COZ041-046-047-076>085-087-088-040900-
...PIKES PEAK/PALMER DIVIDE AND SOUTHERN FOOTHILLS...

CITY           SKY/WX    TMP DP  RH WIND       PRES   REMARKS
COLO. SPRINGS  PTCLDY    57  52  83 NE5       30.16F
A. F. ACADEMY  CLEAR     52  52  99 N9        30.17F
ELLICOTT       CLEAR    N/A N/A N/A W8        30.14F
FALCON         CLEAR     58  50  75 W9        30.20S
FORT CARSON    CLEAR     55  54  98 NW7       30.13F
LIMON          PTCLDY    53  52  96 CALM      30.09F
MONUMENT HILL  CLEAR     54  46  76 SW10      30.19S
TRINIDAD       CLEAR     57  54  89 S5        30.17F
$$

COZ042>045-048>051-090-091-040900-
...NORTHEAST COLORADO...

CITY           SKY/WX    TMP DP  RH WIND       PRES   REMARKS
GREELEY ARPT   PTCLDY    61  52  72 CALM      30.03F
AKRON          MOCLDY    62  50  64 SW7       30.04F
BURLINGTON     CLOUDY    64  59  83 SE6       30.02F
WRAY           PTCLDY    59  53  78 CALM      29.99F
STERLING       MOCLDY    59  52  77 SW6       30.00F
HOLYOKE        PTCLDY    61  54  77 SW6       29.99F
FORT MORGAN    MOCLDY    57  49  75 E5        30.04F
$$

COZ086-089-092>099-040900-
...SOUTHEAST COLORADO...

CITY           SKY/WX    TMP DP  RH WIND       PRES   REMARKS
PUEBLO         CLEAR     61  56  83 W9        30.08F
LA JUNTA       PTCLDY    63  58  83 SW13      30.03S
LAMAR          LGT RAIN  63  61  93 SE15G23   29.96F
SPRINGFIELD      N/A     63  57  81 NE3       30.05F
$$



USA.gov is the U.S. government's official web portal to all federal, state and local government web resources and services.